LiveATC.Net - Listen to live air traffic control over the Internet!


ICAO: ROTM  IATA:   Airport: MCAS Futenma
City: Okinawa
Country: Japan   Continent: Asia
ROTM METAR Weather: ROTM 040156Z 20015G22KT 9999 FEW020 SCT035 SCT200 31/24 A2981 RMK SLP079 T03110244
ROTM Flight Activity (FlightAware)

ROTM Gnd/Twr
Feed Status: UP   Listeners: 0
Listen in your browser - HTML5 player (in browser, HTML5)
Click here to listen with your own player (launches your MP3 player)
Archive Access: ROTM Gnd/Twr

NOTICE

Unauthorized use prohibited. See LiveATC.net Terms of Service


Airport/ARTCC Code
Frequency Search
(e.g., 124.400, 128.75)
Site-wide search
 


Browse Feeds
Top 50 Feeds
Coverage Map
Bad Weather Areas

LiveATC FAQ
Offer LiveATC feed
Contact LiveATC.net
Press Inquiries

LiveATC on iPhone
LiveATC on Android

Windows Phone
Windows 8/10

LiveATC Mobile
(Mobile browser)

ATC Audio Archives
Interesting Recordings

LiveATC Forums


Home Page
About LiveATC.net
Make a Donation
Terms of Use
Privacy Policy

Canadian Air Freqs

AIRMETs/SIGMETs

FAA Airport Status
Nat'l Airspace Status
Arrival Demand Charts


Server Software By:
Icecast.org
Liquidsoap